User: anonymous
Location: CNYAC Observatory
(43.2150°N, 74.9500°W)
Time: 04:12:02
(UTC-04:00)
Language:

Cosmos 1300 Rocket - Orbit

View from above orbital plane
View from above orbital plane
View from above satellite
View from above satellite

Ground track
Ground track

The orbit data is extracted from the following two-line orbital elements,

1 12786U 81082B   14273.71850169  .00000326  00000-0  36093-4 0    28
2 12786 082.4915 180.9971 0016113 283.9348 076.0075 14.84187591787868
Epoch (UTC): 30 September 2014 17:14:38
Eccentricity: 0.0016113
inclination: 82.4915°
perigee height: 605 km
apogee height: 627 km
right ascension of ascending node: 180.9971°
argument of perigee: 283.9348°
revolutions per day: 14.84187591
mean anomaly at epoch: 76.0075°
orbit number at epoch: 78786

The dashed part of the orbit path shows where the satellite is in the earth's shadow,  

DLR